Location: Bégole
(43.1574°N, 0.3291°E)
Time: 01:02:47
(UTC+00:00)

deb Delta 89 - Pass Details

Date: 26 February 2024
Orbit: 714 x 2021 km, 97.5° (Epoch: 13 April)

Event Time Altitude Azimuth Distance (km) Brightness Sun altitude
Rises 03:48:39 0° 8° (N) 5,462 ? -31.8°
Reaches altitude 10° 03:52:07 10° 3° (N) 4,483 ? -31.2°
Maximum altitude 04:02:28 44° 298° (WNW) 2,528 ? -29.4°
Enters shadow 04:03:24 43° 286° (WNW) 2,530 ? -29.3°
